Flag for Reunion (French) Weather past 2 weeks in Saint-Pierre, Reunion (French)

Now
73 °F

Clear.


Feels Like: 77 °F
Forecast: 65 / 76 °F
Wind: 23 mph from Southeast

Location: Saint Airport-Pierre

Current Time: Aug 28, 2015 at 5:04:07 PM

Latest Report: Aug 28, 2015 at 4:30 PM


Visibility: N/A

Pressure: 30.15 "Hg

Humidity: 53%

Dew point: 55 °F

Location of Saint-PierreLocation

Historic Weather in Saint-Pierre — Graph

°F

Saint-Pierre temperature yesterday

Maximum temperature yesterday: 77 °F (at 11:00 AM)
Minimum temperature yesterday: 63 °F (at 6:30 AM)
Average temperature yesterday: 71 °F

Past Weeks' High & Low Weather Summary

 TemperatureHumidityPressure
High81 °F (Aug 14, 1:00 PM)88% (Aug 26, 7:30 AM)30.30 "Hg (Aug 26, 7:30 AM)
Low61 °F (Aug 24, 3:00 AM)36% (Aug 23, 9:00 AM)30.01 "Hg (Aug 18, 5:30 PM)
Average71 °F63%30.16 "Hg
* Reported Aug 13 4:00 PM — Aug 28 4:00 PM, Saint-Pierre, Weather by CustomWeather, © 2015

Note: Actual official high and low records may vary slightly from our data, if they occured in-between our weather recording intervals... More about our weather records

Advertising

Saint-Pierre weather history for previous 24 hours

 ConditionsComfort  
Time TempWeatherWind HumidityBarometerVisibility
4:00 PM
Fri, Aug 28
75 °FClear.24 mph50%30.15 "HgN/A
3:30 PM75 °FClear.25 mph50%30.15 "HgN/A
3:00 PM75 °FClear.25 mph54%30.15 "HgN/A
2:30 PM75 °FClear.28 mph54%30.15 "HgN/A
2:00 PM75 °FClear.29 mph54%30.18 "HgN/A
1:30 PM77 °FClear.26 mph51%30.18 "HgN/A
1:00 PM77 °FSunny.28 mph51%30.21 "Hg0 mi
12:30 PM75 °FSunny.28 mph54%30.21 "Hg0 mi
12:00 PM77 °FSunny.28 mph51%30.21 "HgN/A
11:30 AM75 °FSunny.29 mph54%30.21 "HgN/A
11:00 AM75 °FSunny.28 mph57%30.24 "HgN/A
10:30 AM75 °FSunny.26 mph57%30.24 "HgN/A
10:00 AM75 °FSunny.25 mph57%30.24 "HgN/A
9:30 AM73 °FSunny.22 mph61%30.24 "HgN/A
9:00 AM72 °FSunny.23 mph61%30.24 "HgN/A
8:30 AM72 °FSunny.17 mph61%30.24 "HgN/A
8:00 AM70 °FSunny.15 mph64%30.24 "HgN/A
7:30 AM70 °FSunny.15 mph64%30.24 "HgN/A
7:00 AM68 °FSunny.14 mph64%30.21 "HgN/A
6:30 AM66 °FSunny.14 mph73%30.21 "HgN/A
6:00 AM68 °FPassing clouds.15 mph69%30.21 "HgN/A
5:30 AM68 °FPassing clouds.15 mph69%30.21 "HgN/A
5:00 AM68 °FOvercast.15 mph69%30.21 "HgN/A
4:30 AM68 °FOvercast.18 mph69%30.21 "HgN/A
4:00 AM68 °FMostly cloudy.20 mph69%30.21 "HgN/A
3:30 AM68 °FMostly cloudy.18 mph69%30.21 "HgN/A
3:00 AM68 °FMostly cloudy.18 mph73%30.21 "HgN/A
2:30 AM68 °FPassing clouds.21 mph73%30.21 "HgN/A
2:00 AM68 °FPartly cloudy.18 mph73%30.21 "HgN/A
1:30 AM68 °FPassing clouds.21 mph73%30.21 "HgN/A
1:00 AM68 °FPassing clouds.16 mph73%30.24 "HgN/A
12:30 AM68 °FPassing clouds.21 mph73%30.24 "HgN/A
12:00 AM70 °FPassing clouds.17 mph69%30.24 "HgN/A
11:30 PM
Thu, Aug 27
68 °FPassing clouds.16 mph73%30.24 "HgN/A
11:00 PM68 °FPassing clouds.17 mph73%30.24 "HgN/A
10:30 PM70 °FPassing clouds.23 mph64%30.24 "HgN/A
10:00 PM70 °FPassing clouds.26 mph69%30.24 "HgN/A
9:30 PM70 °FPassing clouds.17 mph69%30.24 "HgN/A
9:00 PM70 °FPassing clouds.21 mph64%30.24 "HgN/A
8:30 PM72 °FClear.20 mph57%30.21 "HgN/A
8:00 PM72 °FPassing clouds.21 mph57%30.21 "HgN/A
7:30 PM70 °FPassing clouds.22 mph64%30.18 "HgN/A
7:00 PM70 °FPassing clouds.22 mph60%30.18 "HgN/A
6:30 PM70 °FPassing clouds.21 mph60%30.18 "HgN/A
6:00 PM72 °FPassing clouds.25 mph57%30.18 "HgN/A
5:30 PM73 °FPassing clouds.24 mph53%30.18 "HgN/A
5:00 PM73 °FSunny.26 mph57%30.15 "HgN/A
Weather by CustomWeather, © 2015

See weather overviewHow to use our weather pages